�������l�o���
Date,Time,MP-1(��Sv/h),MP-2(��Sv/h),MP-3(��Sv/h),MP-4(��Sv/h),MP-5(��Sv/h),MP-6(��Sv/h),MP-7(��Sv/h),MP-8(��Sv/h),����,����(m/s),���J
2020/09/28,00:00,0.650,0.919,0.590,1.132,0.804,0.379,0.661,0.625,���k��,3.0,��
2020/09/28,00:10,0.650,0.920,0.591,1.132,0.804,0.380,0.663,0.624,���k��,2.6,��
2020/09/28,00:20,0.649,0.919,0.592,1.132,0.803,0.381,0.661,0.624,�k��,3.1,��
2020/09/28,00:30,0.650,0.919,0.589,1.133,0.803,0.380,0.662,0.624,�k�k��,3.2,��
2020/09/28,00:40,0.648,0.919,0.590,1.135,0.804,0.381,0.660,0.623,�k��,4.5,��
2020/09/28,00:50,0.649,0.918,0.592,1.133,0.803,0.380,0.661,0.624,�k��,3.7,��
2020/09/28,01:00,0.648,0.921,0.590,1.134,0.806,0.379,0.659,0.625,�k��,3.4,��
2020/09/28,01:10,0.649,0.921,0.592,1.133,0.803,0.381,0.661,0.625,���k��,3.6,��
2020/09/28,01:20,0.648,0.919,0.591,1.135,0.804,0.382,0.661,0.623,�k��,3.1,��
2020/09/28,01:30,0.650,0.918,0.590,1.133,0.802,0.382,0.660,0.623,��,1.9,��
2020/09/28,01:40,0.649,0.920,0.592,1.136,0.802,0.380,0.660,0.624,�k��,1.1,��
2020/09/28,01:50,0.649,0.919,0.591,1.132,0.805,0.381,0.660,0.624,�k��,1.5,��
2020/09/28,02:00,0.649,0.919,0.592,1.134,0.802,0.381,0.661,0.623,�k�k��,2.0,��
2020/09/28,02:10,0.648,0.918,0.590,1.133,0.804,0.381,0.660,0.624,�k�k��,1.9,��
2020/09/28,02:20,0.649,0.917,0.591,1.133,0.805,0.380,0.661,0.623,�k��,3.5,��
2020/09/28,02:30,0.649,0.920,0.590,1.134,0.806,0.381,0.661,0.624,���k��,4.4,��
2020/09/28,02:40,0.649,0.919,0.592,1.134,0.803,0.380,0.661,0.624,���k��,5.8,��
2020/09/28,02:50,0.649,0.918,0.591,1.132,0.805,0.380,0.660,0.624,���k��,7.3,��
2020/09/28,03:00,0.648,0.918,0.591,1.134,0.805,0.381,0.662,0.623,���k��,7.1,��
2020/09/28,03:10,0.651,0.918,0.590,1.135,0.803,0.381,0.661,0.623,���k��,6.4,��
2020/09/28,03:20,0.649,0.918,0.592,1.133,0.804,0.380,0.661,0.625,���k��,5.1,��
2020/09/28,03:30,0.649,0.920,0.591,1.137,0.803,0.381,0.661,0.623,���k��,5.9,��
2020/09/28,03:40,0.647,0.919,0.591,1.132,0.803,0.381,0.660,0.624,���k��,5.4,��
2020/09/28,03:50,0.649,0.919,0.592,1.134,0.804,0.380,0.662,0.625,���k��,6.0,��
2020/09/28,04:00,0.650,0.917,0.589,1.137,0.804,0.381,0.660,0.624,���k��,6.1,��
2020/09/28,04:10,0.648,0.918,0.591,1.136,0.804,0.382,0.660,0.623,���k��,6.7,��
2020/09/28,04:20,0.651,0.920,0.591,1.135,0.803,0.381,0.662,0.623,���k��,5.9,��
2020/09/28,04:30,0.649,0.919,0.590,1.136,0.804,0.381,0.661,0.624,���k��,5.2,��
2020/09/28,04:40,0.648,0.919,0.592,1.134,0.806,0.381,0.660,0.624,���k��,5.4,��
2020/09/28,04:50,0.649,0.918,0.592,1.135,0.803,0.381,0.661,0.625,��,3.9,��
2020/09/28,05:00,0.649,0.917,0.592,1.131,0.803,0.380,0.661,0.624,��,5.0,��
2020/09/28,05:10,0.648,0.920,0.592,1.135,0.805,0.380,0.662,0.623,��,4.9,��
2020/09/28,05:20,0.648,0.920,0.592,1.134,0.805,0.381,0.661,0.625,���k��,2.9,��
2020/09/28,05:30,0.650,0.921,0.591,1.135,0.806,0.381,0.661,0.622,�k��,2.6,��
2020/09/28,05:40,0.649,0.920,0.591,1.136,0.804,0.381,0.662,0.624,�k�k��,2.8,��
2020/09/28,05:50,0.649,0.919,0.590,1.137,0.805,0.379,0.660,0.623,�k�k��,4.1,��
2020/09/28,06:00,0.649,0.919,0.591,1.136,0.805,0.380,0.661,0.624,�k��,4.8,��
2020/09/28,06:10,0.649,0.921,0.592,1.137,0.805,0.381,0.661,0.625,�k��,6.2,��
2020/09/28,06:20,0.649,0.922,0.591,1.136,0.806,0.381,0.661,0.625,�k��,6.7,��
2020/09/28,06:30,0.650,0.920,0.592,1.136,0.803,0.381,0.662,0.624,�k��,7.2,��
2020/09/28,06:40,0.649,0.920,0.592,1.138,0.804,0.380,0.662,0.624,���k��,7.1,��
2020/09/28,06:50,0.647,0.920,0.591,1.136,0.805,0.381,0.662,0.626,���k��,8.1,��
2020/09/28,07:00,0.649,0.921,0.591,1.136,0.804,0.381,0.660,0.625,���k��,8.2,��
2020/09/28,07:10,0.651,0.921,0.593,1.137,0.805,0.382,0.661,0.626,�k��,5.0,��
2020/09/28,07:20,0.652,0.921,0.592,1.137,0.803,0.381,0.660,0.625,�k��,6.1,��
2020/09/28,07:30,0.651,0.919,0.593,1.136,0.805,0.380,0.661,0.626,�k��,6.3,��
2020/09/28,07:40,0.651,0.920,0.592,1.137,0.804,0.380,0.660,0.624,�k��,6.0,��
2020/09/28,07:50,0.651,0.920,0.594,1.136,0.805,0.381,0.662,0.624,�k��,6.4,��
2020/09/28,08:00,0.652,0.920,0.593,1.136,0.805,0.380,0.661,0.626,�k��,4.7,��
2020/09/28,08:10,0.650,0.921,0.592,1.138,0.806,0.379,0.660,0.625,�k��,4.0,��
2020/09/28,08:20,0.649,0.919,0.592,1.139,0.807,0.380,0.661,0.626,�k�k��,3.0,��
2020/09/28,08:30,0.651,0.922,0.595,1.138,0.807,0.381,0.662,0.626,�k�k��,3.3,��
2020/09/28,08:40,0.650,0.919,0.595,1.137,0.807,0.379,0.663,0.626,�k�k��,2.6,��
2020/09/28,08:50,0.651,0.917,0.593,1.139,0.807,0.380,0.663,0.625,�k�k��,2.6,��
2020/09/28,09:00,0.652,0.921,0.596,1.138,0.806,0.379,0.663,0.624,�k�k��,5.1,��
2020/09/28,09:10,0.651,0.921,0.594,1.137,0.805,0.379,0.663,0.623,�k,3.0,��
2020/09/28,09:20,0.652,0.918,0.592,1.140,0.805,0.379,0.662,0.624,�k�k��,5.3,��
2020/09/28,09:30,0.652,0.918,0.593,1.138,0.807,0.380,0.665,0.623,�k��,3.8,��
2020/09/28,09:40,0.653,0.920,0.594,1.139,0.807,0.380,0.663,0.623,�k��,4.1,��
2020/09/28,09:50,0.651,0.921,0.595,1.137,0.809,0.379,0.664,0.623,�k�k��,4.6,��
2020/09/28,10:00,0.652,0.918,0.596,1.141,0.808,0.379,0.662,0.624,�k��,4.1,��
2020/09/28,10:10,0.652,0.924,0.594,1.139,0.808,0.383,0.662,0.623,�k��,4.2,��
2020/09/28,10:20,0.654,0.922,0.594,1.141,0.810,0.380,0.662,0.625,�k�k��,4.5,��
2020/09/28,10:30,0.652,0.920,0.595,1.142,0.808,0.380,0.663,0.624,�k�k��,5.7,��
2020/09/28,10:40,0.652,0.923,0.595,1.143,0.809,0.381,0.663,0.624,�k,3.2,��
2020/09/28,10:50,0.653,0.922,0.595,1.140,0.811,0.380,0.661,0.624,�k�k��,6.4,��
2020/09/28,11:00,0.653,0.921,0.595,1.140,0.810,0.380,0.663,0.623,�k�k��,7.0,��
2020/09/28,11:10,0.653,0.920,0.593,1.140,0.810,0.381,0.661,0.625,�k�k��,7.7,��
2020/09/28,11:20,0.653,0.923,0.594,1.141,0.810,0.381,0.662,0.624,�k�k��,8.6,�L
2020/09/28,11:30,0.653,0.924,0.595,1.140,0.810,0.379,0.664,0.625,�k,8.1,�L
2020/09/28,11:40,0.653,0.923,0.595,1.140,0.809,0.380,0.664,0.625,�k,6.7,��
2020/09/28,11:50,0.654,0.924,0.595,1.139,0.810,0.380,0.663,0.625,�k�k��,6.4,��
2020/09/28,12:00,0.654,0.924,0.595,1.141,0.811,0.379,0.663,0.625,�k,5.9,��
2020/09/28,12:10,0.654,0.925,0.594,1.142,0.809,0.380,0.663,0.625,�k,7.0,��
2020/09/28,12:20,0.653,0.926,0.593,1.142,0.810,0.380,0.664,0.625,�k�k��,7.8,��
2020/09/28,12:30,0.653,0.926,0.595,1.142,0.810,0.380,0.662,0.625,�k�k��,7.7,��
2020/09/28,12:40,0.653,0.927,0.597,1.142,0.811,0.379,0.663,0.626,�k�k��,7.9,��
2020/09/28,12:50,0.652,0.924,0.597,1.142,0.812,0.381,0.664,0.623,�k�k��,7.1,��
2020/09/28,13:00,0.656,0.926,0.595,1.140,0.811,0.380,0.663,0.623,�k�k��,7.1,��
2020/09/28,13:10,0.656,0.925,0.596,1.141,0.814,0.380,0.663,0.625,�k�k��,6.5,��
2020/09/28,13:20,0.655,0.925,0.596,1.141,0.811,0.380,0.663,0.625,�k�k��,5.5,�L
2020/09/28,13:30,0.654,0.924,0.596,1.140,0.812,0.378,0.664,0.625,�k�k��,5.4,�L
2020/09/28,13:40,0.655,0.924,0.595,1.141,0.812,0.379,0.662,0.624,�k�k��,6.2,�L
2020/09/28,13:50,0.654,0.922,0.595,1.141,0.813,0.380,0.664,0.624,�k�k��,6.2,�L
2020/09/28,14:00,0.655,0.926,0.595,1.142,0.813,0.380,0.662,0.625,�k�k��,4.6,��
2020/09/28,14:10,0.654,0.926,0.597,1.142,0.813,0.380,0.664,0.626,�k�k��,5.5,��
2020/09/28,14:20,0.653,0.926,0.597,1.142,0.814,0.381,0.665,0.623,�k�k��,5.8,��
2020/09/28,14:30,0.655,0.925,0.597,1.144,0.815,0.381,0.665,0.625,�k��,5.8,��
2020/09/28,14:40,0.655,0.926,0.595,1.145,0.813,0.382,0.664,0.625,�k��,5.5,��
2020/09/28,14:50,0.654,0.926,0.594,1.143,0.813,0.380,0.664,0.625,�k�k��,5.3,��
2020/09/28,15:00,0.655,0.927,0.594,1.144,0.813,0.379,0.665,0.626,�k��,5.7,��
2020/09/28,15:10,0.653,0.927,0.595,1.145,0.812,0.380,0.664,0.625,�k�k��,6.3,��
2020/09/28,15:20,0.655,0.929,0.596,1.146,0.812,0.380,0.664,0.625,�k�k��,5.8,��
2020/09/28,15:30,0.656,0.928,0.596,1.144,0.814,0.381,0.665,0.624,�k��,5.1,��
2020/09/28,15:40,0.652,0.931,0.596,1.145,0.811,0.383,0.663,0.624,�k��,4.8,��
2020/09/28,15:50,0.655,0.932,0.596,1.147,0.814,0.382,0.664,0.627,�k�k��,4.7,��
2020/09/28,16:00,0.654,0.932,0.595,1.146,0.814,0.381,0.663,0.625,�k�k��,5.0,��
2020/09/28,16:10,0.655,0.929,0.595,1.145,0.814,0.381,0.665,0.624,�k�k��,5.0,��
2020/09/28,16:20,0.654,0.928,0.595,1.143,0.813,0.381,0.664,0.626,�k�k��,6.0,��
2020/09/28,16:30,0.656,0.931,0.593,1.146,0.815,0.381,0.664,0.626,�k�k��,5.9,��
2020/09/28,16:40,0.653,0.932,0.594,1.147,0.814,0.381,0.664,0.626,�k�k��,5.7,��
2020/09/28,16:50,0.653,0.933,0.597,1.146,0.813,0.382,0.663,0.627,�k�k��,5.1,��
2020/09/28,17:00,0.655,0.934,0.596,1.146,0.816,0.381,0.665,0.628,�k,5.7,��
2020/09/28,17:10,0.655,0.933,0.596,1.145,0.815,0.381,0.665,0.626,�k�k��,6.0,��
2020/09/28,17:20,0.655,0.932,0.597,1.147,0.814,0.384,0.664,0.628,�k�k��,5.1,��
2020/09/28,17:30,0.655,0.932,0.597,1.146,0.816,0.383,0.662,0.627,���k��,5.1,��
2020/09/28,17:40,0.657,0.934,0.597,1.149,0.816,0.380,0.663,0.627,�k��,4.4,��
2020/09/28,17:50,0.654,0.934,0.598,1.146,0.816,0.382,0.666,0.626,��,4.9,��
2020/09/28,18:00,0.655,0.935,0.599,1.148,0.817,0.383,0.664,0.629,���k��,4.4,��
2020/09/28,18:10,0.655,0.933,0.600,1.148,0.818,0.383,0.665,0.629,���k��,4.4,��
2020/09/28,18:20,0.655,0.933,0.599,1.147,0.816,0.382,0.663,0.628,���k��,3.7,��
2020/09/28,18:30,0.655,0.934,0.597,1.145,0.820,0.382,0.663,0.627,��,4.6,��
2020/09/28,18:40,0.657,0.934,0.597,1.148,0.818,0.382,0.665,0.629,��,4.7,��
2020/09/28,18:50,0.655,0.935,0.598,1.147,0.819,0.383,0.664,0.628,���k��,5.1,��
2020/09/28,19:00,0.658,0.934,0.597,1.143,0.816,0.382,0.664,0.629,���k��,4.0,��
2020/09/28,19:10,0.655,0.932,0.598,1.146,0.817,0.381,0.664,0.627,���k��,4.6,��
2020/09/28,19:20,0.656,0.934,0.597,1.148,0.819,0.382,0.665,0.628,���k��,4.9,��
2020/09/28,19:30,0.656,0.934,0.598,1.145,0.815,0.383,0.664,0.628,��,5.3,��
2020/09/28,19:40,0.655,0.933,0.597,1.146,0.818,0.381,0.665,0.628,���k��,4.8,��
2020/09/28,19:50,0.656,0.934,0.599,1.148,0.817,0.382,0.663,0.627,��,4.9,��
2020/09/28,20:00,0.655,0.934,0.598,1.146,0.816,0.381,0.664,0.629,��,4.9,�L
2020/09/28,20:10,0.656,0.938,0.598,1.147,0.817,0.383,0.666,0.628,��,5.0,��
2020/09/28,20:20,0.656,0.935,0.598,1.149,0.817,0.382,0.664,0.627,���k��,5.1,��
2020/09/28,20:30,0.655,0.935,0.596,1.146,0.817,0.381,0.665,0.629,��,4.4,��
2020/09/28,20:40,0.656,0.935,0.599,1.148,0.816,0.381,0.663,0.629,���k��,4.3,�L
2020/09/28,20:50,0.655,0.935,0.597,1.146,0.816,0.382,0.665,0.628,���k��,4.3,�L
2020/09/28,21:00,0.655,0.934,0.596,1.145,0.818,0.382,0.664,0.627,���k��,4.3,�L
2020/09/28,21:10,0.656,0.935,0.597,1.147,0.817,0.381,0.663,0.628,���k��,4.4,�L
2020/09/28,21:20,0.655,0.937,0.598,1.146,0.819,0.382,0.664,0.627,���k��,4.4,�L
2020/09/28,21:30,0.654,0.934,0.597,1.149,0.816,0.381,0.663,0.627,���k��,4.4,�L
2020/09/28,21:40,0.654,0.935,0.599,1.149,0.818,0.380,0.664,0.627,���k��,5.1,�L
2020/09/28,21:50,0.658,0.935,0.599,1.147,0.818,0.382,0.662,0.628,�k��,3.1,��
2020/09/28,22:00,0.655,0.936,0.598,1.148,0.819,0.382,0.666,0.629,�k��,3.1,�L
2020/09/28,22:10,0.655,0.936,0.599,1.148,0.818,0.381,0.663,0.628,�k��,4.0,�L
2020/09/28,22:20,0.656,0.937,0.597,1.147,0.818,0.383,0.663,0.628,�k,3.9,��
2020/09/28,22:30,0.656,0.935,0.596,1.147,0.817,0.381,0.664,0.628,�k,2.0,��
2020/09/28,22:40,0.657,0.937,0.597,1.148,0.818,0.382,0.664,0.628,�k��,2.7,�L
2020/09/28,22:50,0.657,0.937,0.598,1.148,0.820,0.381,0.664,0.628,�k�k��,2.4,�L
2020/09/28,23:00,0.659,0.934,0.598,1.147,0.816,0.383,0.665,0.627,�k,2.3,�L
2020/09/28,23:10,0.658,0.935,0.598,1.148,0.818,0.382,0.663,0.628,�k,3.0,�L
2020/09/28,23:20,0.658,0.938,0.599,1.146,0.817,0.382,0.665,0.628,�k,2.6,�L
2020/09/28,23:30,0.657,0.934,0.598,1.147,0.816,0.382,0.662,0.628,�k,2.8,�L
2020/09/28,23:40,0.658,0.934,0.597,1.149,0.817,0.384,0.665,0.628,�k��,2.3,�L
2020/09/28,23:50,0.659,0.935,0.597,1.146,0.818,0.383,0.664,0.627,���k��,3.7,��
